This is the latest recevied weather packets stored in our database for station/object AD7ZD. If no packets are shown the sender has not sent any weather packets the latest 10 day(s).
| Time | Temp. | Humidity | Pressure | Rain* | Wind** | Luminosity | Snow |
|---|---|---|---|---|---|---|---|
| 1777677394 | 22.22° C | 13% | 1013.3 hPa | 0 mm | - | 502 W/m² | - |
| 1777677092 | 22.78° C | 13% | 1013.5 hPa | 0 mm | - | 439 W/m² | - |
| 1777676790 | 22.22° C | 13% | 1013.6 hPa | 0 mm | - | 503 W/m² | - |
| 1777676488 | 22.78° C | 13% | 1013.5 hPa | 0 mm | - | 584 W/m² | - |
| 1777676185 | 22.22° C | 13% | 1013.9 hPa | 0 mm | - | 543 W/m² | - |
| 1777675881 | 22.22° C | 14% | 1013.7 hPa | 0 mm | - | 539 W/m² | - |
| 1777675578 | 22.78° C | 13% | 1013.8 hPa | 0 mm | - | 544 W/m² | - |
| 1777675275 | 22.78° C | 14% | 1014.1 hPa | 0 mm | - | 491 W/m² | - |
| 1777674972 | 22.22° C | 14% | 1014.1 hPa | 0 mm | - | 465 W/m² | - |
| 1777674669 | 22.78° C | 13% | 1014.1 hPa | 0 mm | - | 491 W/m² | - |
| 1777674383 | 22.22° C | 14% | 1014.2 hPa | 0 mm | - | 568 W/m² | - |
| 1777674063 | 22.78° C | 14% | 1014.3 hPa | 0 mm | - | 598 W/m² | - |
| 1777673758 | 22.78° C | 14% | 1014.3 hPa | 0 mm | - | 632 W/m² | - |
| 1777673456 | 21.67° C | 14% | 1014.7 hPa | 0 mm | - | 607 W/m² | - |
| 1777673153 | 22.22° C | 14% | 1014.5 hPa | 0 mm | - | 619 W/m² | - |
| 1777672850 | 22.22° C | 15% | 1014.5 hPa | 0 mm | - | 642 W/m² | - |
| 1777672546 | 22.22° C | 14% | 1014.7 hPa | 0 mm | - | 650 W/m² | - |
| 1777672242 | 21.67° C | 14% | 1014.6 hPa | 0 mm | - | 688 W/m² | - |
| 1777671937 | 21.67° C | 14% | 1014.7 hPa | 0 mm | - | 658 W/m² | - |
| 1777671633 | 22.22° C | 14% | 1014.9 hPa | 0 mm | - | 714 W/m² | - |
| 1777671331 | 22.22° C | 15% | 1014.9 hPa | 0 mm | - | 689 W/m² | - |
| 1777671026 | 22.78° C | 14% | 1015 hPa | 0 mm | - | 608 W/m² | - |
| 1777670723 | 21.67° C | 15% | 1015 hPa | 0 mm | - | 683 W/m² | - |
| 1777670420 | 22.22° C | 14% | 1015 hPa | 0 mm | - | 667 W/m² | - |
| 1777670116 | 22.22° C | 14% | 1015.1 hPa | 0 mm | - | 685 W/m² | - |
* Rain latest hour (hover to see other rain measurements)
** Current wind speed in m/s (hover to see current wind gust speed)